Terminal Aerodrome Forecast
Issued by NWS

Home | Current Version | Previous Version | Graphics & Text | Print | Product List | Glossary On
Versions: 1 2 3 4 5 6 7 8 9 10 11 12 13 14 15 16 17 18 19 20 21 22 23 24
000
FTUS43 KABR 191436 AAA
TAFATY
TAF AMD
KATY 191436Z 1915/2012 14013G23KT 6SM BR OVC005
     FM191530 15019G28KT P6SM OVC008
     FM192000 15022G30KT P6SM SCT070 BKN110
     FM200100 16018G27KT P6SM SHRA VCTS BKN050CB OVC100
     FM200400 18016G24KT P6SM SHRA OVC035
     FM200800 27007KT P6SM SCT060=

USA.gov is the U.S. government's official web portal to all federal, state and local government web resources and services.